| time (UTC) | temp F | wind direction | speed knots | gust knots | rain 1hr in | rain 24hr in | rain mn in | humidity % | barometer mb |
| 20260507114558 | 62 | 218 | 3.5 | 7.8 | 0.00 | 0.00 | 0.00 | 55 | 1009.7 |
| 20260507114043 | 62 | 148 | 0.9 | 5.2 | 0.00 | 0.00 | 0.00 | 56 | 1009.7 |
| 20260507113541 | 62 | 170 | 0.9 | 8.7 | 0.00 | 0.00 | 0.00 | 56 | 1009.8 |
| 20260507113051 | 62 | 173 | 2.6 | 9.6 | 0.00 | 0.00 | 0.00 | 56 | 1010.0 |
| 20260507112544 | 62 | 176 | 4.3 | 9.6 | 0.00 | 0.00 | 0.00 | 56 | 1010.0 |
| 20260507112041 | 62 | 0 | 0.9 | 7.0 | 0.00 | 0.00 | 0.00 | 55 | 1010.0 |
| 20260507111551 | 62 | 122 | 1.7 | 7.0 | 0.00 | 0.00 | 0.00 | 55 | 1010.2 |
| 20260507111044 | 61 | 0 | 3.5 | 7.0 | 0.00 | 0.00 | 0.00 | 56 | 1010.3 |
| 20260507110544 | 61 | 171 | 1.7 | 7.0 | 0.00 | 0.00 | 0.00 | 55 | 1010.3 |
| 20260507110055 | 63 | 182 | 0.9 | 4.3 | 0.00 | 0.00 | 0.00 | 54 | 1010.3 |
| 20260507105541 | 63 | 0 | 0.0 | 4.3 | 0.00 | 0.00 | 0.00 | 56 | 1010.4 |
| 20260507105045 | 61 | 171 | 1.7 | 4.3 | 0.00 | 0.00 | 0.00 | 57 | 1010.4 |
| 20260507104558 | 61 | 181 | 0.9 | 7.0 | 0.00 | 0.00 | 0.00 | 58 | 1010.5 |
| 20260507104044 | 60 | 73 | 0.9 | 7.0 | 0.00 | 0.00 | 0.00 | 59 | 1010.5 |
| 20260507103546 | 60 | 126 | 1.7 | 5.2 | 0.00 | 0.00 | 0.00 | 59 | 1010.7 |
| 20260507103048 | 60 | 107 | 0.9 | 7.0 | 0.00 | 0.00 | 0.00 | 58 | 1010.8 |
| 20260507102545 | 59 | 41 | 1.7 | 7.8 | 0.00 | 0.00 | 0.00 | 60 | 1010.8 |
| 20260507102045 | 59 | 179 | 1.7 | 7.8 | 0.00 | 0.00 | 0.00 | 60 | 1010.8 |
| 20260507101550 | 59 | 188 | 1.7 | 7.8 | 0.00 | 0.00 | 0.00 | 60 | 1011.0 |
| 20260507101045 | 60 | 153 | 0.9 | 6.1 | 0.00 | 0.00 | 0.00 | 60 | 1011.0 |
| 20260507100542 | 60 | 77 | 2.6 | 6.1 | 0.00 | 0.00 | 0.00 | 60 | 1011.0 |
| 20260507100059 | 61 | 5 | 1.7 | 4.3 | 0.00 | 0.00 | 0.00 | 59 | 1011.1 |
| 20260507095545 | 59 | 0 | 1.7 | 7.8 | 0.00 | 0.00 | 0.00 | 61 | 1011.0 |
| 20260507095045 | 59 | 0 | 0.9 | 7.8 | 0.00 | 0.00 | 0.00 | 60 | 1010.9 |
| 20260507094550 | 59 | 74 | 1.7 | 7.8 | 0.00 | 0.00 | 0.00 | 61 | 1010.9 |
| 20260507094045 | 59 | 346 | 1.7 | 6.1 | 0.00 | 0.00 | 0.00 | 61 | 1010.9 |
| 20260507093545 | 58 | 56 | 1.7 | 5.2 | 0.00 | 0.00 | 0.00 | 62 | 1010.9 |
| 20260507093052 | 58 | 18 | 0.9 | 7.0 | 0.00 | 0.00 | 0.00 | 65 | 1010.9 |
| 20260507092545 | 57 | 163 | 1.7 | 7.0 | 0.00 | 0.00 | 0.00 | 63 | 1010.9 |
| 20260507092043 | 58 | 191 | 2.6 | 6.1 | 0.00 | 0.00 | 0.00 | 63 | 1010.9 |
| 20260507091552 | 58 | 116 | 0.9 | 6.1 | 0.00 | 0.00 | 0.00 | 63 | 1011.0 |
| 20260507091045 | 58 | 205 | 1.7 | 7.8 | 0.00 | 0.00 | 0.00 | 61 | 1010.9 |
| 20260507090543 | 58 | 66 | 0.9 | 7.8 | 0.00 | 0.00 | 0.00 | 62 | 1010.9 |
| 20260507090100 | 58 | 1 | 2.6 | 9.6 | 0.00 | 0.00 | 0.00 | 61 | 1010.9 |
| 20260507085544 | 58 | 114 | 3.5 | 9.6 | 0.00 | 0.00 | 0.00 | 63 | 1010.9 |
| 20260507085043 | 58 | 12 | 6.1 | 9.6 | 0.00 | 0.00 | 0.00 | 62 | 1010.9 |
| 20260507084556 | 57 | 0 | 1.7 | 7.0 | 0.00 | 0.00 | 0.00 | 64 | 1010.9 |
| 20260507084042 | 56 | 70 | 2.6 | 6.1 | 0.00 | 0.00 | 0.00 | 65 | 1010.9 |
| 20260507083544 | 57 | 81 | 0.0 | 5.2 | 0.00 | 0.00 | 0.00 | 65 | 1011.0 |
| 20260507083058 | 56 | 134 | 1.7 | 7.8 | 0.00 | 0.00 | 0.00 | 65 | 1010.9 |
| 20260507082544 | 56 | 55 | 2.6 | 7.8 | 0.00 | 0.00 | 0.00 | 67 | 1010.9 |
| 20260507082044 | 55 | 7 | 3.5 | 7.0 | 0.00 | 0.00 | 0.00 | 67 | 1010.9 |
| 20260507081556 | 55 | 62 | 1.7 | 5.2 | 0.00 | 0.00 | 0.00 | 67 | 1011.0 |
| 20260507081045 | 55 | 118 | 0.9 | 6.1 | 0.00 | 0.00 | 0.00 | 67 | 1011.0 |
| 20260507080544 | 55 | 39 | 2.6 | 6.1 | 0.00 | 0.00 | 0.00 | 67 | 1010.9 |
| 20260507075545 | 55 | 70 | 2.6 | 4.3 | 0.00 | 0.00 | 0.00 | 67 | 1010.9 |
| 20260507075045 | 55 | 338 | 1.7 | 7.8 | 0.00 | 0.00 | 0.00 | 68 | 1010.9 |
| 20260507074550 | 54 | 28 | 0.9 | 7.8 | 0.00 | 0.00 | 0.00 | 68 | 1010.7 |
| 20260507074042 | 54 | 64 | 3.5 | 7.8 | 0.00 | 0.00 | 0.00 | 68 | 1010.7 |
| 20260507073548 | 54 | 16 | 1.7 | 8.7 | 0.00 | 0.00 | 0.00 | 68 | 1010.7 |
| 20260507073051 | 54 | 76 | 2.6 | 8.7 | 0.00 | 0.00 | 0.00 | 68 | 1010.7 |
| 20260507072544 | 54 | 37 | 0.9 | 5.2 | 0.00 | 0.00 | 0.00 | 68 | 1010.7 |
| 20260507072045 | 54 | 36 | 1.7 | 5.2 | 0.00 | 0.00 | 0.00 | 68 | 1010.8 |
| 20260507071553 | 54 | 22 | 0.9 | 3.5 | 0.00 | 0.00 | 0.00 | 68 | 1010.8 |
| 20260507071044 | 54 | 26 | 0.0 | 4.3 | 0.00 | 0.00 | 0.00 | 68 | 1010.8 |
| 20260507070541 | 54 | 63 | 0.0 | 4.3 | 0.00 | 0.00 | 0.00 | 68 | 1010.8 |
| 20260507070058 | 54 | 0 | 1.7 | 5.2 | 0.00 | 0.00 | 0.00 | 68 | 1010.8 |
| 20260507065547 | 54 | 84 | 0.0 | 5.2 | 0.00 | 0.00 | 0.00 | 68 | 1010.7 |
| 20260507065044 | 54 | 78 | 1.7 | 5.2 | 0.00 | 0.00 | 0.00 | 68 | 1010.7 |
| 20260507064623 | 54 | 0 | 0.9 | 5.2 | 0.00 | 0.00 | 0.00 | 68 | 1010.7 |
| 20260507064044 | 54 | 3 | 1.7 | 5.2 | 0.00 | 0.00 | 0.00 | 68 | 1010.4 |
| 20260507063544 | 54 | 109 | 0.9 | 4.3 | 0.00 | 0.00 | 0.00 | 68 | 1010.4 |
| 20260507063053 | 53 | 12 | 0.9 | 4.3 | 0.00 | 0.00 | 0.00 | 68 | 1010.3 |
| 20260507062543 | 53 | 107 | 0.9 | 4.3 | 0.00 | 0.00 | 0.00 | 68 | 1010.4 |
| 20260507062043 | 53 | 40 | 0.9 | 3.5 | 0.00 | 0.00 | 0.00 | 69 | 1010.3 |
| 20260507061549 | 53 | 1 | 0.9 | 4.3 | 0.00 | 0.00 | 0.00 | 69 | 1010.2 |
| 20260507061044 | 53 | 0 | 1.7 | 5.2 | 0.00 | 0.00 | 0.00 | 69 | 1010.3 |
| 20260507060542 | 53 | 110 | 0.0 | 6.1 | 0.00 | 0.00 | 0.00 | 69 | 1010.3 |
| 20260507060109 | 53 | 54 | 1.7 | 6.1 | 0.00 | 0.00 | 0.00 | 69 | 1010.3 |
| 20260507055547 | 53 | 49 | 1.7 | 6.1 | 0.00 | 0.00 | 0.00 | 69 | 1010.2 |
| 20260507055047 | 53 | 0 | 1.7 | 6.1 | 0.00 | 0.00 | 0.00 | 69 | 1010.0 |
| 20260507054552 | 53 | 50 | 0.9 | 5.2 | 0.00 | 0.00 | 0.00 | 69 | 1010.0 |
| 20260507054045 | 53 | 66 | 1.7 | 7.0 | 0.00 | 0.00 | 0.00 | 69 | 1009.9 |
| 20260507053548 | 53 | 138 | 1.7 | 8.7 | 0.00 | 0.00 | 0.00 | 69 | 1010.0 |
| 20260507053048 | 52 | 84 | 2.6 | 8.7 | 0.00 | 0.00 | 0.00 | 69 | 1010.0 |
| 20260507052547 | 52 | 88 | 1.7 | 7.0 | 0.00 | 0.00 | 0.00 | 69 | 1009.9 |
| 20260507052044 | 52 | 99 | 2.6 | 7.0 | 0.00 | 0.00 | 0.00 | 69 | 1009.9 |
| 20260507051605 | 53 | 67 | 2.6 | 7.0 | 0.00 | 0.00 | 0.00 | 69 | 1010.0 |
| 20260507051045 | 53 | 82 | 1.7 | 7.8 | 0.00 | 0.00 | 0.00 | 69 | 1009.9 |
| 20260507050549 | 53 | 0 | 1.7 | 7.8 | 0.00 | 0.00 | 0.00 | 69 | 1009.9 |
| 20260507050051 | 53 | 0 | 0.9 | 7.8 | 0.00 | 0.00 | 0.00 | 69 | 1009.9 |
| 20260507045548 | 53 | 59 | 0.9 | 7.8 | 0.00 | 0.00 | 0.00 | 69 | 1009.8 |
| 20260507045048 | 53 | 75 | 2.6 | 7.8 | 0.00 | 0.00 | 0.00 | 69 | 1009.9 |
| 20260507044556 | 53 | 20 | 1.7 | 7.8 | 0.00 | 0.00 | 0.00 | 69 | 1009.9 |
| 20260507044051 | 53 | 8 | 0.9 | 7.8 | 0.00 | 0.00 | 0.00 | 69 | 1009.9 |
| 20260507043547 | 53 | 83 | 2.6 | 6.1 | 0.00 | 0.00 | 0.00 | 69 | 1009.9 |
| 20260507043055 | 52 | 57 | 1.7 | 6.1 | 0.00 | 0.00 | 0.00 | 69 | 1009.9 |
| 20260507042547 | 52 | 0 | 2.6 | 6.1 | 0.00 | 0.00 | 0.00 | 69 | 1009.9 |
| 20260507042047 | 52 | 0 | 0.9 | 10.4 | 0.00 | 0.00 | 0.00 | 68 | 1009.9 |
| 20260507041550 | 52 | 63 | 2.6 | 10.4 | 0.00 | 0.00 | 0.00 | 68 | 1009.9 |
| 20260507041047 | 52 | 77 | 0.9 | 8.7 | 0.00 | 0.00 | 0.00 | 68 | 1009.9 |
| 20260507040547 | 53 | 57 | 0.9 | 7.0 | 0.00 | 0.00 | 0.00 | 68 | 1009.9 |
| 20260507040052 | 52 | 93 | 1.7 | 7.8 | 0.00 | 0.00 | 0.00 | 68 | 1009.9 |
| 20260507035547 | 52 | 32 | 1.7 | 7.8 | 0.00 | 0.00 | 0.00 | 68 | 1009.9 |
| 20260507035047 | 53 | 12 | 1.7 | 7.8 | 0.00 | 0.00 | 0.00 | 67 | 1010.0 |
| 20260507034555 | 53 | 38 | 1.7 | 7.8 | 0.00 | 0.00 | 0.00 | 67 | 1010.0 |
| 20260507034048 | 53 | 0 | 0.9 | 6.1 | 0.00 | 0.00 | 0.00 | 66 | 1010.0 |
| 20260507033548 | 53 | 60 | 0.9 | 6.1 | 0.00 | 0.00 | 0.00 | 66 | 1010.0 |
| 20260507033052 | 53 | 72 | 1.7 | 8.7 | 0.00 | 0.00 | 0.00 | 66 | 1009.9 |
| 20260507032548 | 53 | 55 | 1.7 | 8.7 | 0.00 | 0.00 | 0.00 | 66 | 1009.9 |
| 20260507032047 | 53 | 128 | 1.7 | 5.2 | 0.00 | 0.00 | 0.00 | 65 | 1009.9 |
| 20260507031550 | 53 | 16 | 0.9 | 7.0 | 0.00 | 0.00 | 0.00 | 65 | 1009.8 |
| 20260507031049 | 53 | 346 | 2.6 | 7.8 | 0.00 | 0.00 | 0.00 | 65 | 1009.9 |
| 20260507030548 | 53 | 51 | 3.5 | 7.8 | 0.00 | 0.00 | 0.00 | 65 | 1009.9 |
| 20260507030054 | 53 | 21 | 2.6 | 6.1 | 0.00 | 0.00 | 0.00 | 64 | 1009.9 |
| 20260507025546 | 53 | 11 | 0.9 | 7.0 | 0.00 | 0.00 | 0.00 | 64 | 1009.9 |
| 20260507025048 | 53 | 0 | 0.9 | 7.0 | 0.00 | 0.00 | 0.00 | 64 | 1010.0 |
| 20260507024555 | 54 | 88 | 0.9 | 5.2 | 0.00 | 0.00 | 0.00 | 64 | 1009.9 |
| 20260507024046 | 54 | 66 | 1.7 | 3.5 | 0.00 | 0.00 | 0.00 | 63 | 1009.8 |
| 20260507023542 | 54 | 0 | 0.0 | 4.3 | 0.00 | 0.00 | 0.00 | 63 | 1009.9 |
| 20260507023054 | 54 | 0 | 0.9 | 4.3 | 0.00 | 0.00 | 0.00 | 63 | 1009.9 |
| 20260507022545 | 54 | 0 | 1.7 | 4.3 | 0.00 | 0.00 | 0.00 | 62 | 1010.0 |
| 20260507022044 | 54 | 18 | 0.9 | 4.3 | 0.00 | 0.00 | 0.00 | 62 | 1010.0 |
| 20260507021551 | 54 | 109 | 1.7 | 4.3 | 0.00 | 0.00 | 0.00 | 62 | 1010.0 |
| 20260507021045 | 54 | 0 | 2.6 | 6.1 | 0.00 | 0.00 | 0.00 | 61 | 1009.9 |
| 20260507020545 | 54 | 0 | 1.7 | 6.1 | 0.00 | 0.00 | 0.00 | 61 | 1010.0 |
| 20260507015545 | 54 | 67 | 1.7 | 5.2 | 0.00 | 0.00 | 0.00 | 59 | 1009.9 |
| 20260507015045 | 54 | 75 | 0.9 | 5.2 | 0.00 | 0.00 | 0.00 | 59 | 1009.9 |
| 20260507014559 | 54 | 4 | 0.0 | 5.2 | 0.00 | 0.00 | 0.00 | 59 | 1009.9 |
| 20260507014045 | 54 | 0 | 0.9 | 4.3 | 0.00 | 0.00 | 0.00 | 59 | 1009.8 |
| 20260507013545 | 54 | 29 | 0.9 | 4.3 | 0.00 | 0.00 | 0.00 | 58 | 1009.9 |
| 20260507013047 | 54 | 98 | 0.9 | 4.3 | 0.00 | 0.00 | 0.00 | 59 | 1009.9 |
| 20260507012544 | 54 | 136 | 0.9 | 4.3 | 0.00 | 0.00 | 0.00 | 58 | 1009.9 |
| 20260507012044 | 54 | 151 | 0.9 | 4.3 | 0.00 | 0.00 | 0.00 | 58 | 1010.0 |
| 20260507011552 | 54 | 65 | 0.9 | 7.0 | 0.00 | 0.00 | 0.00 | 58 | 1010.0 |
| 20260507011044 | 54 | 168 | 1.7 | 7.0 | 0.00 | 0.00 | 0.00 | 58 | 1010.0 |
| 20260507010544 | 54 | 107 | 1.7 | 7.8 | 0.00 | 0.00 | 0.00 | 58 | 1010.1 |
| 20260507010059 | 54 | 291 | 2.6 | 7.8 | 0.00 | 0.00 | 0.00 | 57 | 1010.0 |
| 20260507005545 | 54 | 148 | 0.9 | 7.8 | 0.00 | 0.00 | 0.00 | 57 | 1010.0 |
| 20260507005045 | 54 | 45 | 3.5 | 7.8 | 0.00 | 0.00 | 0.00 | 56 | 1010.1 |
| 20260507004550 | 55 | 54 | 1.7 | 7.8 | 0.00 | 0.00 | 0.00 | 56 | 1010.2 |
| 20260507004045 | 55 | 13 | 1.7 | 7.8 | 0.00 | 0.00 | 0.00 | 55 | 1010.1 |
| 20260507003545 | 55 | 111 | 1.7 | 8.7 | 0.00 | 0.00 | 0.00 | 55 | 1010.2 |
| 20260507003051 | 55 | 226 | 1.7 | 8.7 | 0.00 | 0.00 | 0.00 | 54 | 1010.2 |
| 20260507002545 | 55 | 0 | 3.5 | 7.8 | 0.00 | 0.00 | 0.00 | 53 | 1010.2 |
| 20260507002045 | 56 | 64 | 2.6 | 7.0 | 0.00 | 0.00 | 0.00 | 52 | 1010.1 |
| 20260507001556 | 56 | 118 | 1.7 | 6.1 | 0.00 | 0.00 | 0.00 | 52 | 1010.2 |
| 20260507001044 | 56 | 49 | 0.9 | 7.8 | 0.00 | 0.00 | 0.00 | 51 | 1010.0 |
| 20260507000546 | 56 | 103 | 1.7 | 8.7 | 0.00 | 0.00 | 0.00 | 50 | 1010.0 |
| 20260507000051 | 56 | 46 | 2.6 | 8.7 | 0.00 | 0.00 | 0.00 | 49 | 1010.1 |
| 20260506235544 | 57 | 117 | 2.6 | 8.7 | 0.00 | 0.00 | 0.00 | 49 | 1009.9 |
| 20260506235047 | 57 | 34 | 1.7 | 7.8 | 0.00 | 0.00 | 0.00 | 48 | 1009.9 |
| 20260506234550 | 57 | 151 | 2.6 | 7.8 | 0.00 | 0.00 | 0.00 | 47 | 1009.9 |
| 20260506234045 | 57 | 134 | 2.6 | 7.8 | 0.00 | 0.00 | 0.00 | 45 | 1009.9 |
| 20260506233545 | 57 | 97 | 2.6 | 7.8 | 0.00 | 0.00 | 0.00 | 45 | 1009.9 |
| 20260506233052 | 58 | 80 | 1.7 | 7.8 | 0.00 | 0.00 | 0.00 | 43 | 1009.9 |
| 20260506232544 | 58 | 62 | 2.6 | 7.8 | 0.00 | 0.00 | 0.00 | 42 | 1009.9 |
| 20260506232043 | 58 | 26 | 1.7 | 7.8 | 0.00 | 0.00 | 0.00 | 42 | 1009.8 |
| 20260506231608 | 58 | 35 | 1.7 | 7.8 | 0.00 | 0.00 | 0.00 | 41 | 1009.8 |
| 20260506231042 | 59 | 41 | 0.9 | 7.8 | 0.00 | 0.00 | 0.00 | 40 | 1009.8 |
| 20260506230543 | 59 | 31 | 1.7 | 7.8 | 0.00 | 0.00 | 0.00 | 39 | 1009.9 |
| 20260506230116 | 59 | 42 | 1.7 | 6.1 | 0.00 | 0.00 | 0.00 | 38 | 1009.8 |
| 20260506225545 | 59 | 71 | 0.9 | 3.5 | 0.00 | 0.00 | 0.00 | 37 | 1009.8 |
| 20260506225043 | 60 | 55 | 0.9 | 3.5 | 0.00 | 0.00 | 0.00 | 36 | 1009.8 |
| 20260506224603 | 60 | 112 | 0.0 | 3.5 | 0.00 | 0.00 | 0.00 | 36 | 1009.8 |
| 20260506224042 | 60 | 87 | 0.0 | 5.2 | 0.00 | 0.00 | 0.00 | 35 | 1009.8 |
| 20260506223545 | 60 | 0 | 0.9 | 5.2 | 0.00 | 0.00 | 0.00 | 34 | 1009.8 |
| 20260506223057 | 60 | 0 | 0.0 | 3.5 | 0.00 | 0.00 | 0.00 | 34 | 1009.8 |
| 20260506222543 | 61 | 161 | 1.7 | 3.5 | 0.00 | 0.00 | 0.00 | 33 | 1009.8 |
| 20260506222046 | 61 | 157 | 0.9 | 3.5 | 0.00 | 0.00 | 0.00 | 32 | 1009.7 |
| 20260506221610 | 61 | 116 | 0.0 | 3.5 | 0.00 | 0.00 | 0.00 | 32 | 1009.8 |
| 20260506221043 | 61 | 0 | 0.9 | 3.5 | 0.00 | 0.00 | 0.00 | 32 | 1009.8 |
| 20260506220546 | 61 | 78 | 0.9 | 2.6 | 0.00 | 0.00 | 0.00 | 32 | 1009.8 |
| 20260506220108 | 61 | 103 | 0.0 | 2.6 | 0.00 | 0.00 | 0.00 | 33 | 1009.8 |
| 20260506215544 | 61 | 85 | 0.0 | 2.6 | 0.00 | 0.00 | 0.00 | 33 | 1009.8 |
| 20260506215044 | 61 | 110 | 0.0 | 1.7 | 0.00 | 0.00 | 0.00 | 33 | 1009.8 |
| 20260506214553 | 61 | 95 | 0.0 | 2.6 | 0.00 | 0.00 | 0.00 | 33 | 1009.9 |
| 20260506214044 | 61 | 0 | 0.9 | 2.6 | 0.00 | 0.00 | 0.00 | 33 | 1009.8 |
| 20260506213543 | 62 | 0 | 0.0 | 1.7 | 0.00 | 0.00 | 0.00 | 33 | 1009.9 |
| 20260506213110 | 62 | 0 | 0.0 | 1.7 | 0.00 | 0.00 | 0.00 | 33 | 1009.9 |
| 20260506212545 | 62 | 0 | 0.0 | 1.7 | 0.00 | 0.00 | 0.00 | 33 | 1009.9 |
| 20260506212044 | 62 | 84 | 0.0 | 1.7 | 0.00 | 0.00 | 0.00 | 32 | 1009.9 |
| 20260506211550 | 62 | 84 | 0.0 | 2.6 | 0.00 | 0.00 | 0.00 | 32 | 1009.9 |
| 20260506211044 | 62 | 0 | 0.0 | 2.6 | 0.00 | 0.00 | 0.00 | 32 | 1009.9 |
| 20260506210544 | 62 | 84 | 0.0 | 2.6 | 0.00 | 0.00 | 0.00 | 32 | 1009.9 |
| 20260506210104 | 62 | 0 | 0.0 | 1.7 | 0.00 | 0.00 | 0.00 | 31 | 1009.9 |
| 20260506205542 | 62 | 118 | 0.0 | 1.7 | 0.00 | 0.00 | 0.00 | 31 | 1009.9 |
| 20260506205042 | 62 | 0 | 0.0 | 1.7 | 0.00 | 0.00 | 0.00 | 31 | 1009.9 |
| 20260506204601 | 62 | 0 | 0.0 | 1.7 | 0.00 | 0.00 | 0.00 | 30 | 1009.9 |
| 20260506204041 | 62 | 0 | 0.0 | 1.7 | 0.00 | 0.00 | 0.00 | 30 | 1009.9 |
| 20260506203545 | 62 | 61 | 0.0 | 1.7 | 0.00 | 0.00 | 0.00 | 30 | 1009.8 |
| 20260506203052 | 62 | 0 | 0.0 | 1.7 | 0.00 | 0.00 | 0.00 | 31 | 1009.8 |
| 20260506202544 | 63 | 0 | 0.0 | 1.7 | 0.00 | 0.00 | 0.00 | 30 | 1009.8 |
| 20260506202041 | 63 | 0 | 0.0 | 2.6 | 0.00 | 0.00 | 0.00 | 29 | 1009.7 |
| 20260506201555 | 63 | 0 | 0.0 | 2.6 | 0.00 | 0.00 | 0.00 | 29 | 1009.7 |
| 20260506201048 | 63 | 0 | 0.0 | 2.6 | 0.00 | 0.00 | 0.00 | 28 | 1009.7 |
| 20260506200546 | 63 | 0 | 0.0 | 1.7 | 0.00 | 0.00 | 0.00 | 28 | 1009.7 |
| 20260506200058 | 63 | 93 | 0.0 | 1.7 | 0.00 | 0.00 | 0.00 | 28 | 1009.7 |
| 20260506195548 | 63 | 0 | 0.0 | 1.7 | 0.00 | 0.00 | 0.00 | 27 | 1009.7 |
| 20260506195045 | 63 | 0 | 0.0 | 1.7 | 0.00 | 0.00 | 0.00 | 27 | 1009.5 |
| 20260506194553 | 63 | 0 | 0.0 | 1.7 | 0.00 | 0.00 | 0.00 | 27 | 1009.5 |
| 20260506194046 | 63 | 0 | 0.0 | 2.6 | 0.00 | 0.00 | 0.00 | 28 | 1009.5 |
| 20260506193542 | 63 | 39 | 0.0 | 2.6 | 0.00 | 0.00 | 0.00 | 27 | 1009.5 |
| 20260506193052 | 63 | 46 | 0.9 | 2.6 | 0.00 | 0.00 | 0.00 | 27 | 1009.4 |
| 20260506192545 | 64 | 46 | 0.0 | 1.7 | 0.00 | 0.00 | 0.00 | 28 | 1009.5 |
| 20260506192045 | 64 | 155 | 0.0 | 1.7 | 0.00 | 0.00 | 0.00 | 28 | 1009.5 |
| 20260506191552 | 64 | 0 | 0.0 | 1.7 | 0.00 | 0.00 | 0.00 | 28 | 1009.5 |
| 20260506191045 | 64 | 155 | 0.0 | 4.3 | 0.00 | 0.00 | 0.00 | 28 | 1009.4 |
| 20260506190547 | 64 | 0 | 1.7 | 4.3 | 0.00 | 0.00 | 0.00 | 26 | 1009.4 |
| 20260506190051 | 64 | 14 | 0.9 | 1.7 | 0.00 | 0.00 | 0.00 | 26 | 1009.4 |
| 20260506185544 | 64 | 0 | 0.0 | 2.6 | 0.00 | 0.00 | 0.00 | 26 | 1009.4 |
| 20260506185045 | 64 | 0 | 0.0 | 2.6 | 0.00 | 0.00 | 0.00 | 26 | 1009.3 |
| 20260506184613 | 64 | 148 | 0.9 | 3.5 | 0.00 | 0.00 | 0.00 | 26 | 1009.4 |
| 20260506184045 | 64 | 179 | 1.7 | 3.5 | 0.00 | 0.00 | 0.00 | 25 | 1009.3 |
| 20260506183549 | 64 | 206 | 0.9 | 3.5 | 0.00 | 0.00 | 0.00 | 25 | 1009.3 |
| 20260506183055 | 65 | 149 | 0.0 | 1.7 | 0.00 | 0.00 | 0.00 | 25 | 1009.3 |
| 20260506182545 | 65 | 137 | 0.0 | 3.5 | 0.00 | 0.00 | 0.00 | 26 | 1009.3 |
| 20260506182042 | 65 | 137 | 0.9 | 3.5 | 0.00 | 0.00 | 0.00 | 26 | 1009.4 |
| 20260506181552 | 65 | 184 | 0.9 | 2.6 | 0.00 | 0.00 | 0.00 | 25 | 1009.3 |
| 20260506181045 | 65 | 167 | 0.9 | 3.5 | 0.00 | 0.00 | 0.00 | 25 | 1009.3 |
| 20260506180545 | 65 | 100 | 0.0 | 3.5 | 0.00 | 0.00 | 0.00 | 25 | 1009.4 |
| 20260506180056 | 65 | 176 | 0.9 | 4.3 | 0.00 | 0.00 | 0.00 | 26 | 1009.3 |
| 20260506175544 | 65 | 142 | 0.9 | 4.3 | 0.00 | 0.00 | 0.00 | 26 | 1009.3 |
| 20260506175047 | 65 | 49 | 0.9 | 5.2 | 0.00 | 0.00 | 0.00 | 26 | 1009.4 |
| 20260506174552 | 66 | 159 | 0.9 | 5.2 | 0.00 | 0.00 | 0.00 | 26 | 1009.4 |
| 20260506174043 | 66 | 126 | 1.7 | 6.1 | 0.00 | 0.00 | 0.00 | 26 | 1009.4 |
| 20260506173544 | 66 | 1 | 1.7 | 6.1 | 0.00 | 0.00 | 0.00 | 26 | 1009.4 |
| 20260506173056 | 66 | 0 | 1.7 | 6.1 | 0.00 | 0.00 | 0.00 | 27 | 1009.5 |
| 20260506172543 | 66 | 120 | 1.7 | 6.1 | 0.00 | 0.00 | 0.00 | 27 | 1009.5 |
| 20260506172047 | 65 | 128 | 1.7 | 5.2 | 0.00 | 0.00 | 0.00 | 27 | 1009.4 |
| 20260506171607 | 66 | 169 | 1.7 | 6.1 | 0.00 | 0.00 | 0.00 | 27 | 1009.5 |
| 20260506171043 | 65 | 109 | 2.6 | 7.8 | 0.00 | 0.00 | 0.00 | 28 | 1009.5 |
| 20260506170544 | 65 | 218 | 3.5 | 7.8 | 0.00 | 0.00 | 0.00 | 28 | 1009.5 |
| 20260506170056 | 65 | 172 | 4.3 | 7.8 | 0.00 | 0.00 | 0.00 | 27 | 1009.4 |
| 20260506165543 | 66 | 172 | 2.6 | 6.1 | 0.00 | 0.00 | 0.00 | 26 | 1009.6 |
| 20260506165043 | 66 | 351 | 0.9 | 5.2 | 0.00 | 0.00 | 0.00 | 28 | 1009.5 |
| 20260506164552 | 65 | 199 | 0.9 | 8.7 | 0.00 | 0.00 | 0.00 | 28 | 1009.7 |
| 20260506164042 | 65 | 204 | 2.6 | 8.7 | 0.00 | 0.00 | 0.00 | 28 | 1009.7 |
| 20260506163542 | 65 | 174 | 1.7 | 6.1 | 0.00 | 0.00 | 0.00 | 28 | 1009.7 |
| 20260506163052 | 65 | 253 | 1.7 | 6.1 | 0.00 | 0.00 | 0.00 | 28 | 1009.7 |
| 20260506162544 | 65 | 217 | 2.6 | 6.1 | 0.00 | 0.00 | 0.00 | 27 | 1009.7 |
| 20260506162044 | 65 | 155 | 2.6 | 6.1 | 0.00 | 0.00 | 0.00 | 28 | 1009.8 |
| 20260506161549 | 66 | 0 | 1.7 | 4.3 | 0.00 | 0.00 | 0.00 | 27 | 1009.7 |
| 20260506161041 | 67 | 8 | 0.9 | 3.5 | 0.00 | 0.00 | 0.00 | 27 | 1009.7 |
| 20260506160543 | 68 | 243 | 0.0 | 3.5 | 0.00 | 0.00 | 0.00 | 26 | 1009.8 |
| 20260506155542 | 66 | 266 | 0.9 | 6.1 | 0.00 | 0.00 | 0.00 | 28 | 1009.8 |
| 20260506155043 | 65 | 265 | 0.9 | 6.1 | 0.00 | 0.00 | 0.00 | 28 | 1009.8 |
| 20260506154553 | 65 | 236 | 0.9 | 5.2 | 0.00 | 0.00 | 0.00 | 28 | 1009.9 |
| 20260506154046 | 65 | 156 | 0.9 | 5.2 | 0.00 | 0.00 | 0.00 | 30 | 1009.9 |
| 20260506153545 | 65 | 0 | 1.7 | 6.1 | 0.00 | 0.00 | 0.00 | 30 | 1009.9 |
| 20260506153055 | 64 | 71 | 1.7 | 6.1 | 0.00 | 0.00 | 0.00 | 30 | 1009.9 |
| 20260506152544 | 65 | 147 | 1.7 | 4.3 | 0.00 | 0.00 | 0.00 | 30 | 1010.0 |
| 20260506152045 | 65 | 194 | 1.7 | 7.8 | 0.00 | 0.00 | 0.00 | 31 | 1010.0 |
| 20260506151551 | 65 | 192 | 2.6 | 7.8 | 0.00 | 0.00 | 0.00 | 31 | 1010.0 |
| 20260506151042 | 65 | 0 | 1.7 | 7.8 | 0.00 | 0.00 | 0.00 | 31 | 1010.1 |
| 20260506150543 | 65 | 168 | 3.5 | 7.0 | 0.00 | 0.00 | 0.00 | 30 | 1010.2 |
| 20260506150053 | 66 | 204 | 0.0 | 1.7 | 0.00 | 0.00 | 0.00 | 28 | 1010.2 |
| 20260506145545 | 65 | 259 | 0.0 | 7.0 | 0.00 | 0.00 | 0.00 | 31 | 1010.3 |
| 20260506145045 | 64 | 273 | 1.7 | 7.0 | 0.00 | 0.00 | 0.00 | 31 | 1010.4 |
| 20260506144602 | 63 | 135 | 1.7 | 6.1 | 0.00 | 0.00 | 0.00 | 33 | 1010.4 |
| 20260506144045 | 64 | 180 | 2.6 | 6.1 | 0.00 | 0.00 | 0.00 | 32 | 1010.5 |
| 20260506143545 | 64 | 147 | 0.9 | 5.2 | 0.00 | 0.00 | 0.00 | 33 | 1010.6 |
| 20260506143051 | 64 | 230 | 0.9 | 5.2 | 0.00 | 0.00 | 0.00 | 33 | 1010.7 |
| 20260506142545 | 63 | 14 | 1.7 | 6.1 | 0.00 | 0.00 | 0.00 | 33 | 1010.7 |
| 20260506142042 | 63 | 12 | 3.5 | 6.1 | 0.00 | 0.00 | 0.00 | 32 | 1010.8 |
| 20260506141549 | 65 | 5 | 1.7 | 4.3 | 0.00 | 0.00 | 0.00 | 32 | 1010.8 |
| 20260506141045 | 66 | 224 | 0.9 | 4.3 | 0.00 | 0.00 | 0.00 | 32 | 1010.9 |
| 20260506140545 | 67 | 132 | 0.9 | 6.1 | 0.00 | 0.00 | 0.00 | 31 | 1010.9 |
| 20260506140053 | 65 | 307 | 1.7 | 6.1 | 0.00 | 0.00 | 0.00 | 34 | 1010.9 |
| 20260506135542 | 66 | 213 | 0.9 | 3.5 | 0.00 | 0.00 | 0.00 | 32 | 1011.0 |
| 20260506135043 | 66 | 240 | 0.9 | 3.5 | 0.00 | 0.00 | 0.00 | 33 | 1011.0 |
| 20260506134552 | 66 | 259 | 0.0 | 5.2 | 0.00 | 0.00 | 0.00 | 33 | 1011.0 |
| 20260506134043 | 64 | 262 | 0.9 | 5.2 | 0.00 | 0.00 | 0.00 | 35 | 1011.1 |
| 20260506133542 | 63 | 213 | 2.6 | 5.2 | 0.00 | 0.00 | 0.00 | 36 | 1011.2 |
| 20260506133052 | 62 | 225 | 1.7 | 4.3 | 0.00 | 0.00 | 0.00 | 36 | 1011.2 |
| 20260506132545 | 62 | 183 | 0.9 | 3.5 | 0.00 | 0.00 | 0.00 | 36 | 1011.3 |
| 20260506132044 | 62 | 351 | 0.0 | 3.5 | 0.00 | 0.00 | 0.00 | 37 | 1011.3 |
| 20260506131612 | 62 | 101 | 0.9 | 4.3 | 0.00 | 0.00 | 0.00 | 37 | 1011.3 |
| 20260506131045 | 62 | 0 | 0.9 | 4.3 | 0.00 | 0.00 | 0.00 | 37 | 1011.3 |
| 20260506130544 | 63 | 331 | 0.9 | 4.3 | 0.00 | 0.00 | 0.00 | 36 | 1011.3 |
| 20260506130055 | 61 | 0 | 0.0 | 3.5 | 0.00 | 0.00 | 0.00 | 39 | 1011.4 |
| 20260506125545 | 60 | 357 | 0.9 | 4.3 | 0.00 | 0.00 | 0.00 | 40 | 1011.5 |
| 20260506125044 | 60 | 323 | 1.7 | 4.3 | 0.00 | 0.00 | 0.00 | 40 | 1011.5 |
| 20260506124550 | 60 | 319 | 1.7 | 3.5 | 0.00 | 0.00 | 0.00 | 40 | 1011.6 |
| 20260506124044 | 61 | 330 | 1.7 | 3.5 | 0.00 | 0.00 | 0.00 | 40 | 1011.7 |
| 20260506123542 | 61 | 324 | 0.0 | 3.5 | 0.00 | 0.00 | 0.00 | 40 | 1011.6 |
| 20260506123055 | 60 | 338 | 0.9 | 4.3 | 0.00 | 0.00 | 0.00 | 41 | 1011.7 |
| 20260506122542 | 60 | 336 | 1.7 | 7.0 | 0.00 | 0.00 | 0.00 | 41 | 1011.8 |
| 20260506122042 | 60 | 37 | 0.9 | 7.0 | 0.00 | 0.00 | 0.00 | 42 | 1011.8 |
| 20260506121557 | 60 | 341 | 2.6 | 7.0 | 0.00 | 0.00 | 0.00 | 41 | 1011.8 |
| 20260506121047 | 60 | 351 | 1.7 | 7.8 | 0.00 | 0.00 | 0.00 | 40 | 1011.8 |
| 20260506120542 | 61 | 94 | 4.3 | 7.8 | 0.00 | 0.00 | 0.00 | 39 | 1011.8 |
| 20260506120054 | 62 | 30 | 0.9 | 4.3 | 0.00 | 0.00 | 0.00 | 40 | 1011.9 |
| 20260506115547 | 60 | 74 | 0.9 | 3.5 | 0.00 | 0.00 | 0.00 | 41 | 1011.9 |
| 20260506115043 | 60 | 39 | 0.9 | 4.3 | 0.00 | 0.00 | 0.00 | 42 | 1012.0 |